^^
Atglen Borough Weather Station Historical Data
 
Daily Summary for May 25, 2018 Units:  English    Metric   Both
Daily Weekly Monthly Yearly Custom
  Current: High: Low: Average:
Temperature: 66.4 °F 66.4 °F 52.3 °F 56.2 °F
Dew Point: 58.3 °F 58.3 °F 49.8 °F 52.6 °F
Humidity: 75% 96% 75% 88%
Wind Speed: 2.0mph 2.0mph 0.0mph 0mph
Wind Gust: 2.0mph 2.0mph - -
WindSW - - SW
Pressure: 30.06 in 30.11 in 30.06 in -
Precipitation: 0.00 in      
Historical Graphs
 
 
Tabular Data for May 25, 2018
Time Temperature Dew Point Pressure Wind Wind Speed Wind Gust Humidity Rainfall Rate (Hourly)
00:03 60.4 °F 54.3 °F 30.11 in Calm     80% 0.00 in
00:08 60.4 °F 54.3 °F 30.10 in Calm     80% 0.00 in
00:13 60.3 °F 54.1 °F 30.11 in Calm   2.0 mph 80% 0.00 in
00:18 60.1 °F 54.3 °F 30.10 in Calm   1.0 mph 81% 0.00 in
00:23 59.9 °F 54.1 °F 30.10 in Calm   1.0 mph 81% 0.00 in
00:28 59.7 °F 54.0 °F 30.11 in Calm     81% 0.00 in
00:33 59.5 °F 53.8 °F 30.11 in Calm     81% 0.00 in
00:38 59.5 °F 54.0 °F 30.10 in Calm     82% 0.00 in
00:43 59.4 °F 53.8 °F 30.10 in Calm     82% 0.00 in
00:48 59.4 °F 53.8 °F 30.10 in Calm     82% 0.00 in
00:53 59.2 °F 53.6 °F 30.10 in Calm     82% 0.00 in
00:58 59.0 °F 53.6 °F 30.10 in Calm   1.0 mph 82% 0.00 in
01:03 58.8 °F 53.6 °F 30.10 in Calm     83% 0.00 in
01:08 58.8 °F 53.6 °F 30.10 in Calm     83% 0.00 in
01:13 58.6 °F 53.4 °F 30.10 in Calm     83% 0.00 in
01:18 58.6 °F 53.2 °F 30.09 in Calm     82% 0.00 in
01:23 58.5 °F 53.1 °F 30.09 in Calm     82% 0.00 in
01:28 58.3 °F 52.9 °F 30.09 in Calm     82% 0.00 in
01:33 58.1 °F 52.7 °F 30.09 in Calm     82% 0.00 in
01:38 57.9 °F 52.7 °F 30.09 in Calm     83% 0.00 in
01:43 57.7 °F 52.7 °F 30.09 in Calm     83% 0.00 in
01:48 57.6 °F 52.5 °F 30.09 in Calm     83% 0.00 in
01:53 57.4 °F 52.3 °F 30.09 in Calm     83% 0.00 in
01:58 57.4 °F 52.5 °F 30.09 in Calm     84% 0.00 in
02:03 57.0 °F 52.5 °F 30.09 in Calm     85% 0.00 in
02:08 57.0 °F 52.5 °F 30.09 in Calm     85% 0.00 in
02:13 56.8 °F 52.7 °F 30.09 in Calm     86% 0.00 in
02:18 56.7 °F 52.5 °F 30.09 in Calm     86% 0.00 in
02:23 56.7 °F 52.5 °F 30.09 in Calm     86% 0.00 in
02:28 56.5 °F 52.7 °F 30.08 in Calm     87% 0.00 in
02:32 56.5 °F 52.7 °F 30.08 in Calm     87% 0.00 in
02:37 56.3 °F 52.5 °F 30.08 in Calm     87% 0.00 in
02:42 56.1 °F 52.7 °F 30.08 in Calm     88% 0.00 in
02:47 56.1 °F 52.7 °F 30.08 in Calm     88% 0.00 in
02:52 55.9 °F 52.5 °F 30.07 in Calm     88% 0.00 in
02:58 55.9 °F 52.5 °F 30.07 in Calm     88% 0.00 in
03:03 55.9 °F 52.5 °F 30.07 in Calm     88% 0.00 in
03:08 55.8 °F 52.3 °F 30.07 in Calm     88% 0.00 in
03:13 55.6 °F 52.2 °F 30.07 in Calm     88% 0.00 in
03:18 55.6 °F 52.2 °F 30.07 in Calm     88% 0.00 in
03:23 55.4 °F 52.0 °F 30.07 in Calm     88% 0.00 in
03:28 55.2 °F 52.0 °F 30.07 in Calm     89% 0.00 in
03:33 55.2 °F 52.0 °F 30.07 in Calm     89% 0.00 in
03:38 55.0 °F 51.8 °F 30.07 in Calm     89% 0.00 in
03:43 55.0 °F 51.8 °F 30.06 in Calm     89% 0.00 in
03:48 55.0 °F 52.2 °F 30.06 in Calm     90% 0.00 in
03:53 55.0 °F 52.2 °F 30.07 in Calm     90% 0.00 in
03:58 54.9 °F 52.0 °F 30.07 in Calm     90% 0.00 in
04:03 54.9 °F 52.0 °F 30.06 in Calm     90% 0.00 in
04:08 54.9 °F 52.0 °F 30.06 in Calm     90% 0.00 in
04:13 54.7 °F 51.8 °F 30.06 in Calm     90% 0.00 in
04:16 54.7 °F 51.8 °F 30.06 in Calm     90% 0.00 in
04:21 54.5 °F 51.6 °F 30.06 in Calm     90% 0.00 in
04:26 54.5 °F 51.6 °F 30.06 in Calm     90% 0.00 in
04:31 54.3 °F 51.4 °F 30.06 in Calm     90% 0.00 in
04:36 54.3 °F 51.4 °F 30.06 in Calm     90% 0.00 in
04:41 54.3 °F 51.4 °F 30.06 in Calm     90% 0.00 in
04:42 54.1 °F 51.3 °F 30.06 in Calm     90% 0.00 in
04:47 54.1 °F 51.3 °F 30.06 in Calm     90% 0.00 in
04:52 54.1 °F 51.6 °F 30.06 in Calm     91% 0.00 in
04:57 54.1 °F 51.6 °F 30.06 in Calm     91% 0.00 in
05:02 54.0 °F 51.1 °F 30.06 in Calm     90% 0.00 in
05:07 53.8 °F 50.9 °F 30.06 in Calm     90% 0.00 in
05:12 53.8 °F 50.9 °F 30.07 in Calm     90% 0.00 in
05:17 53.6 °F 50.7 °F 30.07 in Calm     90% 0.00 in
05:22 53.4 °F 50.9 °F 30.07 in Calm     91% 0.00 in
05:27 53.4 °F 50.9 °F 30.07 in Calm     91% 0.00 in
05:32 53.2 °F 50.7 °F 30.07 in Calm     91% 0.00 in
05:37 53.2 °F 50.7 °F 30.07 in Calm     91% 0.00 in
05:42 53.1 °F 50.5 °F 30.07 in Calm     91% 0.00 in
05:47 53.1 °F 50.5 °F 30.07 in Calm     91% 0.00 in
05:52 52.9 °F 50.4 °F 30.07 in Calm     91% 0.00 in
05:57 52.9 °F 50.4 °F 30.07 in Calm     91% 0.00 in
06:02 52.7 °F 50.2 °F 30.07 in Calm     91% 0.00 in
06:08 52.5 °F 50.0 °F 30.07 in Calm     91% 0.00 in
06:13 52.5 °F 50.0 °F 30.07 in Calm     91% 0.00 in
06:18 52.3 °F 49.8 °F 30.07 in Calm     91% 0.00 in
06:23 52.3 °F 49.8 °F 30.07 in Calm     91% 0.00 in
06:28 52.3 °F 49.8 °F 30.08 in Calm     91% 0.00 in
06:33 52.3 °F 50.0 °F 30.07 in Calm     92% 0.00 in
06:38 52.3 °F 50.0 °F 30.07 in Calm     92% 0.00 in
06:43 52.5 °F 50.2 °F 30.07 in Calm     92% 0.00 in
06:48 52.7 °F 50.7 °F 30.07 in Calm     93% 0.00 in
06:53 52.9 °F 50.9 °F 30.07 in Calm     93% 0.00 in
06:58 53.1 °F 51.1 °F 30.07 in Calm     93% 0.00 in
07:03 53.2 °F 51.6 °F 30.07 in Calm     94% 0.00 in
07:08 53.4 °F 51.8 °F 30.07 in Calm     94% 0.00 in
07:13 53.8 °F 52.2 °F 30.07 in Calm     94% 0.00 in
07:18 54.3 °F 52.9 °F 30.07 in Calm     95% 0.00 in
07:23 54.7 °F 53.2 °F 30.07 in Calm     95% 0.00 in
07:28 55.0 °F 53.6 °F 30.07 in Calm     95% 0.00 in
07:33 55.8 °F 54.3 °F 30.06 in Calm     95% 0.00 in
07:38 56.8 °F 55.8 °F 30.06 in Calm     96% 0.00 in
07:43 58.3 °F 56.8 °F 30.06 in Calm     95% 0.00 in
07:48 59.7 °F 57.7 °F 30.06 in Calm     93% 0.00 in
07:53 60.6 °F 57.7 °F 30.06 in Calm     90% 0.00 in
07:58 61.9 °F 56.3 °F 30.06 in Calm     82% 0.00 in
08:03 63.0 °F 56.3 °F 30.06 in Calm     79% 0.00 in
08:08 64.0 °F 57.4 °F 30.06 in Calm     79% 0.00 in
08:13 64.9 °F 57.6 °F 30.06 in Calm     77% 0.00 in
08:18 65.7 °F 57.6 °F 30.06 in Calm   2.0 mph 75% 0.00 in
08:23 66.4 °F 58.3 °F 30.06 in SW 2.0 mph 2.0 mph 75% 0.00 in
Atglen Borough, Pennsylvania, USA
Compliments of Weather Underground - 2.5 mb